EW4405 Weather Reports


time (UTC)temp
F
wind
direction
speed
knots
gust
knots
rain 1hr
in
rain 24hr
in
rain mn
in
humidity
%
barometer
mb
20260502163108 68 64 3.5 8.7 0.00 1.29 0.00 63 1020.2
20260502162346 67 30 3.5 9.6 0.00 1.33 0.00 63 1020.1
20260502161847 67 46 4.3 9.6 0.00 1.42 0.00 62 1020.1
20260502161347 67 65 5.2 9.6 0.00 1.57 0.00 64 1020.2
20260502160846 66 38 5.2 10.4 0.00 1.61 0.00 64 1020.2
20260502160346 66 65 3.5 10.4 0.00 1.61 0.00 67 1020.2
20260502151847 64 58 4.3 11.3 0.00 1.68 0.00 70 1020.0
20260502151347 64 0 3.5 7.8 0.00 1.68 0.00 71 1020.0
20260502151113 63 0 3.5 8.7 0.00 1.68 0.00 71 1020.1
20260502150347 63 0 3.5 8.7 0.00 1.68 0.00 72 1020.1
20260502130319 56 0 2.6 6.1 0.00 1.69 0.00 84 1018.8
20260502123318 55 0 2.6 6.1 0.00 1.69 0.00 85 1018.4
20260502122812 55 0 1.7 5.2 0.00 1.70 0.00 85 1018.2
20260502122538 55 0 2.6 5.2 0.00 1.70 0.00 85 1018.2
20260502122039 54 0 1.7 5.2 0.00 1.70 0.00 85 1018.1
20260502121313 54 0 1.7 5.2 0.00 1.70 0.00 85 1018.0
20260502120813 54 0 2.6 6.1 0.00 1.71 0.00 85 1017.9
20260502120310 54 0 2.6 6.1 0.00 1.71 0.00 85 1018.0
20260502115811 54 43 2.6 6.1 0.00 1.71 0.00 85 1017.8
20260502115312 54 48 2.6 7.0 0.00 1.71 0.00 84 1017.8
20260502114813 54 63 2.6 7.0 0.00 1.71 0.00 84 1017.7
20260502114530 54 66 2.6 6.1 0.00 1.71 0.00 84 1017.7
20260502113811 54 75 2.6 7.8 0.00 1.71 0.00 84 1017.6
20260502113312 54 54 2.6 7.8 0.00 1.71 0.00 84 1017.6
20260502112812 54 48 2.6 6.1 0.00 1.71 0.00 84 1017.6
20260502112310 54 0 2.6 6.1 0.00 1.71 0.00 84 1017.6
20260502112034 55 0 1.7 6.1 0.00 1.71 0.00 84 1017.4
20260502111303 55 0 1.7 6.1 0.00 1.71 0.00 84 1017.4
20260502110804 55 0 1.7 4.3 0.00 1.71 0.00 84 1017.5
20260502110301 55 0 1.7 4.3 0.00 1.71 0.00 83 1017.4
20260502105759 55 0 1.7 4.3 0.00 1.71 0.00 83 1017.5
20260502105300 55 0 0.9 4.3 0.00 1.71 0.00 83 1017.4
20260502104759 55 0 1.7 3.5 0.00 1.71 0.00 83 1017.3
20260502104258 55 0 0.9 3.5 0.00 1.71 0.00 83 1017.2
20260502103758 55 0 0.9 3.5 0.00 1.71 0.00 83 1017.0
20260502103257 55 0 1.7 3.5 0.00 1.71 0.00 83 1016.9
20260502103017 55 0 1.7 7.0 0.00 1.71 0.00 82 1016.9
20260502102522 55 58 1.7 7.0 0.00 1.71 0.00 82 1016.8
20260502101750 55 63 1.7 3.5 0.00 1.71 0.00 82 1016.8
20260502101252 55 59 1.7 4.3 0.00 1.71 0.00 81 1016.6
20260502101010 55 58 1.7 4.3 0.00 1.71 0.00 81 1016.6
20260502100514 55 49 2.6 6.1 0.00 1.71 0.00 81 1016.4
20260502091252 56 66 2.6 7.0 0.00 1.71 0.00 83 1015.7
20260502090751 56 56 2.6 7.0 0.00 1.71 0.00 83 1015.6
20260502090250 56 69 1.7 6.1 0.00 1.71 0.00 84 1015.7
20260502071145 57 67 3.5 9.6 0.00 1.81 0.00 84 1015.4
20260502070644 57 42 4.3 10.4 0.00 1.82 0.00 84 1015.4
20260502070143 57 63 4.3 10.4 0.00 1.83 0.00 84 1015.5
20260502065912 57 45 3.5 7.8 0.00 1.83 0.00 84 1015.5
20260502065141 57 67 4.3 8.7 0.00 1.84 0.00 84 1015.5
20260502064642 57 59 4.3 8.7 0.00 1.85 0.00 84 1015.5
20260502064142 57 51 3.5 9.6 0.00 1.86 0.00 85 1015.4
20260502063900 57 55 3.5 9.6 0.00 1.87 0.00 85 1015.3
20260502063139 57 38 3.5 7.8 0.00 1.87 0.00 85 1015.2
20260502062640 57 49 3.5 7.8 0.00 1.89 0.00 85 1015.2
20260502062138 57 46 3.5 7.8 0.00 1.89 0.00 85 1015.2
20260502062121 57 69 3.5 10.4 0.00 1.90 0.00 85 1015.1
20260502061138 57 51 3.5 10.4 0.00 1.91 0.00 85 1015.0
20260502060631 57 59 3.5 7.8 0.00 1.92 0.00 85 1015.1
20260502060125 57 62 3.5 7.8 0.00 1.93 0.00 85 1015.1
20260502055625 57 51 4.3 8.7 0.00 1.94 0.00 85 1015.1
20260502055125 57 51 5.2 13.9 0.00 1.95 0.00 85 1015.1
20260502054625 57 67 5.2 13.9 0.00 1.96 0.00 85 1014.9
20260502054124 57 51 5.2 12.2 0.00 1.97 0.00 86 1015.0
20260502053625 57 66 5.2 12.2 0.00 1.98 0.00 86 1015.0
20260502053127 57 69 5.2 9.6 0.00 2.00 0.00 86 1015.0
20260502052625 57 59 5.2 9.6 0.00 2.01 0.00 86 1015.0
20260502052343 57 60 4.3 9.6 0.00 2.03 0.00 86 1014.9
20260502051626 57 50 5.2 9.6 0.00 2.04 0.00 86 1015.1
20260502051126 57 57 5.2 10.4 0.00 2.06 0.00 86 1015.1
20260502050625 57 63 5.2 10.4 0.00 2.08 0.00 87 1015.0
20260502050124 56 55 5.2 9.6 0.00 2.11 0.00 87 1015.0
20260502045624 56 59 5.2 11.3 0.00 2.12 2.11 87 1014.9
20260502045123 56 49 4.3 11.3 0.00 2.13 2.11 88 1014.9
20260502044624 56 38 4.3 8.7 0.00 2.13 2.11 88 1014.9
20260502044123 56 53 4.3 7.8 0.00 2.13 2.11 88 1014.9
20260502043623 56 69 3.5 7.8 0.00 2.13 2.11 88 1015.0
20260502043124 56 68 3.5 8.7 0.00 2.13 2.11 89 1015.1
20260502042625 56 67 4.3 9.6 0.00 2.13 2.11 89 1015.0
20260502042123 56 44 4.3 9.6 0.00 2.13 2.11 89 1015.0
20260502041853 56 49 4.3 9.6 0.00 2.13 2.11 90 1015.0
20260502041124 56 54 4.3 9.6 0.00 2.13 2.11 90 1014.9
20260502040623 56 61 3.5 7.8 0.00 2.13 2.11 90 1015.0
20260502040122 56 58 3.5 8.7 0.00 2.13 2.11 90 1015.0
20260502035621 56 45 4.3 9.6 0.00 2.13 2.11 90 1014.9
20260502035121 56 42 4.3 9.6 0.00 2.13 2.11 90 1014.8
20260502034619 57 35 4.3 9.6 0.00 2.13 2.11 90 1014.8
20260502034118 57 67 3.5 9.6 0.00 2.13 2.11 90 1014.7
20260502033618 57 46 3.5 9.6 0.00 2.13 2.11 90 1014.5
20260502033118 57 40 3.5 9.6 0.00 2.13 2.11 90 1014.5
20260502032612 57 66 4.3 9.6 0.01 2.13 2.11 90 1014.4
20260502032110 57 30 3.5 8.7 0.01 2.13 2.11 90 1014.3
20260502031825 57 43 2.6 9.6 0.01 2.13 2.11 90 1014.2
20260502031703 57 39 2.6 7.0 0.01 2.13 2.11 90 1014.1
20260502030555 57 49 4.3 9.6 0.02 2.13 2.11 90 1014.2
20260502030049 57 53 4.3 8.7 0.02 2.13 2.11 90 1013.4
20260502025544 57 36 4.3 8.7 0.03 2.13 2.11 90 1013.1
20260502025033 57 45 3.5 10.4 0.03 2.13 2.11 90 1013.3
20260502024530 58 49 4.3 10.4 0.03 2.13 2.11 90 1013.3
20260502024022 58 65 4.3 9.6 0.03 2.13 2.11 90 1013.1
20260502023511 58 42 3.5 9.6 0.03 2.13 2.11 90 1013.1
20260502023005 59 47 3.5 9.6 0.03 2.13 2.11 91 1012.7
20260502022459 59 58 3.5 7.8 0.02 2.12 2.10 91 1012.8
20260502021951 58 67 3.5 7.8 0.02 2.12 2.10 91 1012.9
20260502021443 58 41 3.5 7.0 0.02 2.12 2.10 90 1012.9
20260502020938 58 42 3.5 7.0 0.01 2.11 2.10 90 1012.9
20260502020429 58 34 3.5 7.0 0.02 2.11 2.09 90 1012.9
20260502015921 58 49 3.5 8.7 0.02 2.11 2.09 90 1013.0
20260502015415 58 74 3.5 8.7 0.02 2.10 2.08 90 1013.1
20260502014907 58 44 3.5 9.6 0.02 2.10 2.08 90 1013.1
20260502014359 59 39 3.5 9.6 0.02 2.10 2.08 90 1013.0
20260502013854 59 33 2.6 7.0 0.02 2.10 2.08 90 1012.7
20260502013343 59 49 2.6 6.1 0.02 2.10 2.08 91 1012.6
20260502012837 59 43 2.6 7.8 0.02 2.10 2.08 90 1012.7
20260502012333 59 28 3.5 7.8 0.02 2.10 2.08 90 1012.6
20260502011821 59 43 3.5 7.8 0.02 2.10 2.08 90 1012.1
20260502011316 59 46 3.5 7.8 0.02 2.10 2.08 90 1011.8
20260502010811 59 55 3.5 7.8 0.03 2.10 2.08 90 1011.8
20260502010300 59 40 3.5 7.0 0.03 2.09 2.07 90 1011.9
20260502005759 59 42 2.6 5.2 0.04 2.08 2.07 90 1011.9
20260502005247 59 40 2.6 6.1 0.07 2.08 2.06 90 1012.0
20260502004739 59 36 2.6 6.1 0.08 2.08 2.06 90 1011.8
20260502004451 59 32 2.6 8.7 0.10 2.08 2.06 91 1011.6
20260502003725 59 51 3.5 8.7 0.11 2.08 2.06 91 1011.2
20260502003438 59 67 3.5 7.0 0.11 2.08 2.06 91 1010.9
20260502002711 59 40 4.3 7.8 0.12 2.08 2.06 90 1010.7
20260502002203 59 69 4.3 9.6 0.14 2.08 2.06 90 1010.7
20260502001654 59 47 4.3 9.6 0.16 2.08 2.06 90 1011.0
20260502001148 59 35 4.3 10.4 0.17 2.08 2.06 90 1011.1
20260502000643 60 49 4.3 10.4 0.17 2.07 2.05 90 1011.0
20260502000132 60 44 3.5 7.8 0.16 2.06 2.04 90 1010.9
20260501235626 60 48 3.5 7.8 0.15 2.03 2.02 90 1011.1
20260501235119 60 57 3.5 8.7 0.12 2.00 1.98 90 1011.2
20260501234609 60 51 4.3 8.7 0.13 1.99 1.97 90 1010.9
20260501234104 60 38 5.2 10.4 0.12 1.98 1.96 90 1010.4
20260501233557 60 46 5.2 10.4 0.11 1.97 1.95 90 1010.0
20260501233047 60 35 6.1 12.2 0.10 1.96 1.94 90 1008.9
20260501232036 60 67 5.2 11.3 0.07 1.93 1.92 90 1009.8
20260501231526 60 28 5.2 9.6 0.06 1.92 1.90 90 1010.3
20260501231025 61 53 5.2 9.6 0.04 1.90 1.89 90 1010.1
20260501230529 61 53 4.3 8.7 0.04 1.90 1.88 90 1009.8
20260501230523 61 46 3.5 7.8 0.03 1.89 1.88 90 1009.9
20260501225524 61 36 2.6 7.0 0.02 1.88 1.86 90 1010.0
20260501225024 61 53 2.6 7.0 0.01 1.87 1.86 91 1009.9
20260501224526 61 42 3.5 7.8 0.01 1.86 1.84 91 1010.0
20260501224254 61 62 3.5 8.7 0.03 1.86 1.84 90 1009.7
20260501223525 61 63 5.2 9.6 0.03 1.86 1.84 90 1009.9
20260501223025 61 66 5.2 9.6 0.03 1.86 1.84 90 1009.7
20260501222750 61 59 6.1 13.0 0.03 1.86 1.84 91 1009.5
20260501222024 62 65 6.1 13.0 0.03 1.86 1.84 91 1009.4
20260501221523 62 69 5.2 11.3 0.03 1.86 1.84 90 1009.5
20260501221253 62 69 4.3 11.3 0.03 1.86 1.84 91 1009.7
20260501220525 62 61 4.3 11.3 0.03 1.86 1.84 91 1009.8
20260501220240 62 32 4.3 9.6 0.04 1.86 1.84 91 1009.8
20260501215525 62 46 4.3 9.6 0.06 1.86 1.84 91 1009.6
20260501215022 62 50 3.5 7.8 0.06 1.86 1.84 91 1009.6
20260501214522 62 36 3.5 8.7 0.05 1.84 1.82 91 1010.2
20260501214018 62 65 2.6 8.7 0.05 1.83 1.81 91 1010.0
20260501213521 62 63 3.5 8.7 0.06 1.83 1.81 91 1010.6
20260501212518 62 32 3.5 9.6 0.08 1.83 1.81 91 1009.8
20260501212018 62 41 2.6 6.1 0.10 1.83 1.81 91 1010.1
20260501211520 62 44 3.5 10.4 0.11 1.83 1.81 91 1010.1
20260501211014 62 47 5.2 10.4 0.13 1.83 1.81 91 1009.7
20260501210514 62 64 3.5 9.6 0.16 1.83 1.81 91 1009.1
20260501210015 63 63 1.7 7.0 0.16 1.82 1.80 90 1009.5
20260501205514 62 0 2.6 8.7 0.14 1.80 1.79 90 1009.4
20260501205238 62 0 4.3 9.6 0.18 1.80 1.78 90 1008.6
20260501204514 63 0 4.3 10.4 0.20 1.79 1.77 91 1008.3
20260501204015 63 0 5.2 10.4 0.24 1.78 1.76 90 1008.5
20260501203512 63 0 4.3 9.6 0.35 1.77 1.75 90 1008.4
20260501203011 63 0 4.3 9.6 0.38 1.76 1.74 90 1008.8
20260501202522 63 0 4.3 8.7 0.40 1.73 1.71 90 1008.7
20260501202511 63 0 4.3 8.7 0.40 1.75 1.73 90 1008.6
20260501201512 63 0 3.5 6.1 0.40 1.72 1.70 90 1009.1
20260501201013 63 0 2.6 6.1 0.39 1.70 1.68 90 1008.6
20260501200739 63 0 1.7 5.2 0.36 1.67 1.65 90 1009.0
20260501200011 63 0 2.6 7.8 0.36 1.66 1.64 90 1008.6
20260501195731 63 0 2.6 7.8 0.36 1.66 1.64 90 1008.5
20260501195008 63 0 0.9 4.3 0.33 1.62 1.62 90 1008.7
20260501194509 63 0 1.7 7.8 0.29 1.58 1.57 90 1008.6
20260501194009 63 0 3.5 7.8 0.26 1.54 1.52 90 1008.3
20260501193739 63 0 4.3 8.7 0.15 1.42 1.42 90 1008.0
20260501193008 63 0 3.5 8.7 0.17 1.38 1.36 90 1007.9
20260501192509 63 0 3.5 6.1 0.15 1.35 1.33 90 1009.0
20260501192006 63 0 3.5 7.0 0.13 1.33 1.31 90 1008.7
20260501191506 63 0 2.6 7.0 0.13 1.32 1.30 90 1008.6
20260501191006 63 0 1.7 7.0 0.15 1.31 1.29 90 1008.7
20260501190507 63 0 2.6 8.7 0.20 1.31 1.29 90 1007.9
20260501190008 63 0 2.6 8.7 0.25 1.30 1.28 90 1007.9
20260501185506 63 0 2.6 8.7 0.28 1.30 1.28 90 1007.8
20260501185007 63 0 3.5 8.7 0.27 1.29 1.27 90 1007.8
20260501184507 63 0 2.6 7.0 0.28 1.29 1.27 90 1008.5
20260501184234 63 0 2.6 6.1 0.28 1.28 1.26 89 1007.7
20260501183507 63 74 2.6 6.1 0.27 1.27 1.25 90 1008.5
20260501183010 63 0 1.7 5.2 0.21 1.21 1.20 89 1011.2
20260501182507 63 0 0.9 5.2 0.21 1.20 1.18 89 1010.3
20260501182008 63 0 1.7 7.0 0.21 1.20 1.18 89 1008.8
20260501181505 63 0 2.6 7.0 0.21 1.19 1.17 89 1007.9
20260501181003 63 0 2.6 7.0 0.22 1.16 1.15 89 1008.1
20260501180504 63 0 3.5 7.8 0.19 1.11 1.10 89 1009.1
20260501180001 63 0 3.5 9.6 0.19 1.05 1.03 89 1010.2
20260501175501 63 0 4.3 9.6 0.16 1.02 1.00 89 1010.1
20260501174959 63 0 4.3 10.4 0.17 1.02 1.00 89 1009.3
20260501174458 63 0 4.3 10.4 0.16 1.01 0.99 89 1009.0
20260501173948 63 0 3.5 7.8 0.15 1.00 0.98 89 1009.3
20260501173442 64 0 3.5 7.0 0.16 1.00 0.98 89 1009.7
20260501172937 63 0 3.5 7.0 0.16 1.00 0.98 89 1009.6
20260501172428 64 0 3.5 7.0 0.18 0.99 0.97 89 1009.5
20260501171921 63 0 3.5 8.7 0.25 0.99 0.97 89 1009.3
20260501171638 63 0 4.3 8.7 0.42 0.98 0.96 89 1009.3
20260501170904 63 0 5.2 10.4 0.42 0.94 0.92 89 1009.7
20260501170358 63 0 4.3 10.4 0.40 0.92 0.90 89 1010.1
20260501165853 63 0 3.5 8.7 0.34 0.86 0.84 89 1010.1
20260501165343 63 0 4.3 7.8 0.34 0.86 0.84 89 1010.5
20260501164838 63 32 5.2 11.3 0.33 0.85 0.83 89 1010.4
20260501164330 63 67 4.3 11.3 0.34 0.85 0.83 89 1010.1
20260501163822 63 65 2.6 6.1 0.34 0.85 0.83 89 1010.5
20260501163314 63 61 2.6 7.0 0.33 0.84 0.82 89 1011.1